�������ċp�F�����K�X���j�^�v���󋵏��
Date,Time,�ċp�F�����K�X���j�^(cps),����,����(m/s)
2022/03/26,00:00,1.5,��,9.2
2022/03/26,00:10,1.5,��,8.4
2022/03/26,00:20,1.4,��,8.4
2022/03/26,00:30,1.5,��,8.4
2022/03/26,00:40,1.6,��,8.4
2022/03/26,00:50,1.5,��,8.6
2022/03/26,01:00,1.4,��,8.1
2022/03/26,01:10,1.4,��,9.1
2022/03/26,01:20,1.5,��,9.3
2022/03/26,01:30,1.5,��,9.5
2022/03/26,01:40,1.5,��,8.4
2022/03/26,01:50,1.4,��,9.1
2022/03/26,02:00,1.4,��,8.3
2022/03/26,02:10,1.5,��,8.0
2022/03/26,02:20,1.5,��쓌,7.8
2022/03/26,02:30,1.5,��쓌,5.9
2022/03/26,02:40,1.4,��,8.3
2022/03/26,02:50,1.4,��,8.4
2022/03/26,03:00,1.5,��,7.0
2022/03/26,03:10,1.5,��,5.9
2022/03/26,03:20,1.4,��,6.3
2022/03/26,03:30,1.4,��,6.4
2022/03/26,03:40,1.4,��,5.6
2022/03/26,03:50,1.6,��,4.8
2022/03/26,04:00,1.5,��,7.0
2022/03/26,04:10,1.5,��,8.3
2022/03/26,04:20,1.4,��,5.5
2022/03/26,04:30,1.5,��,2.6
2022/03/26,04:40,1.5,��,1.9
2022/03/26,04:50,1.4,��쐼,1.2
2022/03/26,05:00,1.5,��쐼,3.7
2022/03/26,05:10,1.4,��,2.9
2022/03/26,05:20,1.5,��쓌,2.6
2022/03/26,05:30,1.5,��쓌,1.9
2022/03/26,05:40,1.5,��,4.6
2022/03/26,05:50,1.5,��,6.1
2022/03/26,06:00,1.5,��쓌,5.5
2022/03/26,06:10,1.5,��쓌,5.7
2022/03/26,06:20,1.5,��쓌,7.2
2022/03/26,06:30,1.4,��쓌,5.2
2022/03/26,06:40,1.5,��쓌,4.9
2022/03/26,06:50,1.4,�쓌,3.6
2022/03/26,07:00,1.6,��,7.2
2022/03/26,07:10,1.5,��,9.4
2022/03/26,07:20,1.5,��,11.9
2022/03/26,07:30,1.4,��,11.9
2022/03/26,07:40,1.4,��,12.1
2022/03/26,07:50,1.5,��,14.1
2022/03/26,08:00,1.4,��,13.2
2022/03/26,08:10,1.5,��,13.5
2022/03/26,08:20,1.5,��,15.3
2022/03/26,08:30,1.4,��,14.4
2022/03/26,08:40,1.4,��,12.2
2022/03/26,08:50,1.5,��,11.9
2022/03/26,09:00,1.4,��,10.8
2022/03/26,09:10,1.5,��,11.3
2022/03/26,09:20,1.4,��,11.4
2022/03/26,09:30,1.4,��,10.3
2022/03/26,09:40,1.5,��,9.2
2022/03/26,09:50,1.5,��,13.0
2022/03/26,10:00,1.5,��,12.4
2022/03/26,10:10,1.5,��,9.5
2022/03/26,10:20,1.5,��,9.8
2022/03/26,10:30,1.5,��쐼,8.9
2022/03/26,10:40,1.4,��,13.2
2022/03/26,10:50,1.5,��,13.0
2022/03/26,11:00,1.4,��,12.4
2022/03/26,11:10,1.5,��쓌,11.6
2022/03/26,11:20,1.4,��,13.1
2022/03/26,11:30,1.5,��,12.4
2022/03/26,11:40,1.4,��,11.3
2022/03/26,11:50,1.5,��,11.9
2022/03/26,12:00,1.4,��,10.5
2022/03/26,12:10,1.5,��,9.2
2022/03/26,12:20,1.5,��,10.2
2022/03/26,12:30,1.4,��,11.1
2022/03/26,12:40,1.5,��,13.5
2022/03/26,12:50,1.5,��,13.3
2022/03/26,13:00,1.5,��,12.7
2022/03/26,13:10,1.5,��,12.4
2022/03/26,13:20,1.5,��,12.1
2022/03/26,13:30,1.5,��,12.1
2022/03/26,13:40,1.5,��,13.6
2022/03/26,13:50,1.5,��,11.4
2022/03/26,14:00,1.5,��,12.1
2022/03/26,14:10,1.5,��,11.3
2022/03/26,14:20,1.5,��,13.3
2022/03/26,14:30,1.5,��,12.4
2022/03/26,14:40,1.4,��,14.9
2022/03/26,14:50,1.5,��,12.5
2022/03/26,15:00,1.6,��,11.6
2022/03/26,15:10,1.5,��,10.8
2022/03/26,15:20,1.6,��,13.0
2022/03/26,15:30,1.6,��쐼,12.2
2022/03/26,15:40,1.4,��,14.6
2022/03/26,15:50,1.6,��,12.8
2022/03/26,16:00,1.5,��,14.1
2022/03/26,16:10,1.5,��,13.2
2022/03/26,16:20,1.5,��,14.9
2022/03/26,16:30,1.5,��,14.1
2022/03/26,16:40,1.4,-,CALM
2022/03/26,16:50,1.5,��,12.2
2022/03/26,17:00,1.5,��,14.4
2022/03/26,17:10,1.5,��,14.1
2022/03/26,17:20,1.5,��,18.8
2022/03/26,17:30,1.5,-,CALM
2022/03/26,17:40,1.5,��,16.9
2022/03/26,17:50,1.5,��,14.9
2022/03/26,18:00,1.4,��쓌,12.7
2022/03/26,18:10,1.5,-,CALM
2022/03/26,18:20,1.5,��,15.7
2022/03/26,18:30,1.4,��,20.2
2022/03/26,18:40,1.5,-,CALM
2022/03/26,18:50,1.4,��,15.8
2022/03/26,19:00,1.5,��,11.4
2022/03/26,19:10,1.5,��,12.7
2022/03/26,19:20,1.5,��,13.0
2022/03/26,19:30,1.5,��,10.4
2022/03/26,19:40,1.4,��,12.2
2022/03/26,19:50,1.5,��,12.4
2022/03/26,20:00,1.6,��,12.4
2022/03/26,20:10,1.5,��,11.6
2022/03/26,20:20,1.5,��,11.6
2022/03/26,20:30,1.5,��,10.2
2022/03/26,20:40,1.6,��쓌,12.1
2022/03/26,20:50,1.5,��,10.0
2022/03/26,21:00,1.4,��,7.8
2022/03/26,21:10,1.5,��쓌,11.6
2022/03/26,21:20,1.4,��,11.9
2022/03/26,21:30,1.5,��,11.7
2022/03/26,21:40,1.5,��,13.9
2022/03/26,21:50,1.5,��,13.8
2022/03/26,22:00,1.5,��쐼,11.6
2022/03/26,22:10,1.6,��,16.0
2022/03/26,22:20,1.5,��,13.0
2022/03/26,22:30,1.5,��,13.6
2022/03/26,22:40,1.5,��,14.9
2022/03/26,22:50,1.5,��,14.4
2022/03/26,23:00,1.5,��,12.1
2022/03/26,23:10,1.5,��,13.1
2022/03/26,23:20,1.5,��,12.2
2022/03/26,23:30,1.6,��,11.3
2022/03/26,23:40,1.4,��,8.5
2022/03/26,23:50,1.5,��쓌,10.2
